Regional Weather Roundup
Issued by NWS

Home | Current Version | Previous Version | Graphics & Text | Print | Product List | Glossary On
Versions: 1 2 3 4 5 6 7 8 9 10 11 12 13 14 15 16 17 18 19 20 21 22 23 24 25 26 27 28 29 30 31 32 33 34 35 36 37 38 39 40 41 42 43 44 45 46 47 48 49 50
000
ASUS43 KIND 241109
RWRIN

WEATHER ROUNDUP FOR INDIANA
NATIONAL WEATHER SERVICE INDIANAPOLIS IN
600 AM EST SAT FEB 24 2018

NOTE: "FAIR" INDICATES FEW OR NO CLOUDS BELOW 12,000 FEET WITH NO
SIGNIFICANT WEATHER AND/OR OBSTRUCTIONS TO VISIBILITY.

* - STATION DOES NOT REPORT WEATHER SUCH AS PRECIPITATION OR FOG.

+ - STATION NOT QUALITY CONTROLLED BY THE NATIONAL WEATHER SERVICE.
    USE DATA WITH CAUTION...ESPECIALLY DEWPOINT AND RELATIVE
    HUMIDITY OBSERVATIONS.

INZ001>003-010>013-019-020-241200-
NORTHWEST INDIANA

CITY           SKY/WX    TMP DP  RH WIND       PRES   REMARKS
GARY /AIRPORT/ MOCLDY    36  34  93 NE10      30.19F WCI  28
LA PORTE +     CLOUDY    35  31  87 NE8       30.19F WCI  28
MICHIGAN CITY+ CLOUDY    34  32  93 NE5       30.20F WCI  30
MONTICELLO +   DRIZZLE   36  35  94 NE10      30.14F WCI  29
RENSSELAER +   DRIZZLE   36  32  87 NE10      30.16F WCI  28
VALPARAISO     CLOUDY    37  32  82 NE10      30.17F WCI  30

$$

LMZ046-743>745-241200-
SOUTHERN LAKE MICHIGAN

STATION/POSITION TIME  TEMP    WIND        PRES    WAVE
                       AIR SEA DIR/SP/G            HT
                 (UTC) (F)     (DEG/KT/KT) (MB)    (FT)
BURNS HARBOR     1040   34      50/ 13/ 15 1023.0F
MICHIGAN CITY    1040   33      30/ 14/ 15   N/A

$$

INZ004-005-014>016-021>024-241200-
NORTH CENTRAL INDIANA

CITY           SKY/WX    TMP DP  RH WIND       PRES   REMARKS
GOSHEN         CLOUDY    36  32  85 NE7       30.19F WCI  30
LOGANSPORT +   CLOUDY    36  34  93 E7        30.16S FOG     WCI  30
PERU/GRISSOM   CLOUDY    37  37 100 E10       30.14F FOG     WCI  30
ROCHESTER +    LGT RAIN  37  36  93 NE9       30.17F WCI  31
SOUTH BEND     CLOUDY    35  30  82 NE9       30.21F WCI  28
WARSAW +       LGT RAIN  34  32  93 N8        30.18F WCI  27

$$

INZ006>009-017-018-025>027-241200-
NORTHEAST INDIANA

CITY           SKY/WX    TMP DP  RH WIND       PRES   REMARKS
AUBURN +       CLOUDY    36  34  93 NE7       30.20F WCI  30
FORT WAYNE     LGT RAIN  38  36  92 NE12      30.17F FOG     WCI  30
HUNTINGTON +   DRIZZLE   36  35  96 NE8       30.15F WCI  30
KENDALLVILLE + CLOUDY    35  33  93 E8        30.19F WCI  29

$$

INZ028-029-035-036-043>045-051>053-241200-
WEST CENTRAL INDIANA

CITY           SKY/WX    TMP DP  RH WIND       PRES   REMARKS
CRAWFORDSVL +  LGT SNOW  37  37 100 NE6         N/A  WCI  32
GREENCASTLE +  LGT RAIN  39  37  93 NE7       30.14R WCI  34
LAFAYETTE      LGT RAIN  37  37 100 E8        30.15S FOG     WCI  31
TERRE HAUTE    RAIN      41  41 100 N7        30.14S

$$

INZ030>032-037>040-046>048-054>057-064-065-241200-
CENTRAL INDIANA

CITY           SKY/WX    TMP DP  RH WIND       PRES   REMARKS
FISHERS *+     CLOUDY    39  39 100 E5        30.15F WCI  36
GREENWOOD *+   CLOUDY    40 -48   2 NE8       30.13F WCI  34
INDIANAPOLIS   RAIN      41  40  96 NE9       30.14R FOG
-EAGLE CREEK   LGT RAIN  41  38  89 E6        30.14R
KOKOMO +       LGT RAIN  38  37  97 NE13      30.15F FOG     WCI  30
MARION +       CLOUDY    38  38  99 NE12      30.16S WCI  30
MT COMFORT *+  CLOUDY    39  39 100 E7        30.14S WCI  34
SHELBYVILLE    LGT RAIN  44  41  89 NE9       30.12F
ZIONSVILLE +   RAIN      38  38  99 E7        30.16R WCI  33

$$

INZ033-034-041-042-049-050-058-059-241200-
EAST CENTRAL INDIANA

CITY           SKY/WX    TMP DP  RH WIND       PRES   REMARKS
MUNCIE         LGT RAIN  42  40  92 E7        30.14F
RICHMOND +     RAIN      41  41 100 NE10      30.17R

$$

INZ060-061-067>069-081>083-085>088-241200-
SOUTHWEST INDIANA

CITY           SKY/WX    TMP DP  RH WIND       PRES   REMARKS
EVANSVILLE     LGT RAIN  48  48 100 E8        30.07F FOG
HUNTINGBURG +  RAIN      49  48  97 E6        30.10S FOG
WASHINGTON +   DRIZZLE   46  44  94 CALM      30.12R

$$

INZ062-063-066-070>080-084-089>092-241200-
SOUTH CENTRAL AND SOUTHEAST INDIANA

CITY           SKY/WX    TMP DP  RH WIND       PRES   REMARKS
BATESVILLE +   CLOUDY    45  45 100 MISG      30.13F FOG
BEDFORD +      DRIZZLE   46  45  93 CALM      30.10S
BLOOMINGTON    LGT RAIN  45  44  97 E6        30.12R
FRENCH LICK *+ CLOUDY    46 N/A N/A E8        30.10R
MADISON *+     CLOUDY    48  46  93 NE10      30.13F
NORTH VERNON + LGT RAIN  45  45 100 E8        30.12F
SEYMOUR +      LGT RAIN  48  46  93 E7        30.10F

$$





USA.gov is the U.S. government's official web portal to all federal, state and local government web resources and services.